Vertical_Velocity
-0 1 -2 -0 2 2 -1 -0 0 1 1 0 0 1 1 0 1 -0 0 -1 0 1 1 1 0 0 -1 -1 -1 -1 -1 -1 -1 -1 -0 -1 -2 -1 -1 -1 -1 -1 -1
0 1 2 -2 3 3 0 -1 -1 1 -0 1 0 -0 1 -0 0 0 0 -0 -1 -1 -1 -1 -0 2 -1 -1 -0 -0 -0 -1 -1 -1 -1 -0 -1 -1 -1 -1 -1 0 0
-0 -0 2 0 0 3 1 0 -0 0 0 -0 0 0 -0 1 -0 1 0 0 2 1 1 -0 -1 -0 1 -0 -1 -1 -0 -0 -0 0 -1 -0 0 -0 -0 -1 -1 1 -1
1 1 0 1 1 4 2 1 1 0 1 0 1 0 -0 0 0 -0 -1 1 -0 -1 1 1 0 -1 0 1 0 -0 -0 0 -0 -0 0 -1 -1 -1 -0 -0 -1 -0 0
-0 -2 0 1 0 -0 1 0 0 0 1 -1 -1 0 0 -1 -0 1 -1 2 2 -0 0 0 -0 0 0 1 1 0 -1 -1 0 -1 -0 1 0 0 0 -0 -1 -0 -1
1 -0 -1 1 1 0 0 -1 0 -0 -0 2 0 0 -1 -0 -0 -0 2 1 -1 -0 -0 1 0 0 1 1 1 1 1 -0 0 -0 -0 -0 0 1 1 -0 0 0 0
-1 -2 -2 1 3 0 0 -1 -1 0 -1 -1 1 1 -2 -0 0 2 2 1 2 1 1 -0 -1 -1 0 1 1 0 1 1 0 0 -1 -1 -0 -0 0 1 1 1 0
-0 -3 0 -0 3 -0 5 1 -1 -0 -0 -0 -1 -0 -0 -2 -1 2 2 2 1 1 1 2 0 -1 -1 -1 0 -0 -1 1 1 2 2 1 0 0 -1 -1 -0 0 0
4 -2 -3 0 6 3 -4 2 2 -2 -1 -1 1 2 2 0 -0 0 1 -0 -1 1 2 2 1 -0 -0 -0 1 0 0 -1 -1 -0 1 1 2 2 1 1 0 0 -0
1 1 1 1 -1 2 5 3 -2 -2 0 -2 -2 -1 2 1 1 3 9 -0 -1 -1 1 2 2 2 0 -0 -1 -0 1 -0 1 -1 -1 -1 0 0 1 1 1 0 1
0 0 -2 -1 2 -0 2 2 3 3 2 3 -2 0 0 1 0 2 4 2 1 -1 -1 0 3 2 3 1 1 1 0 1 1 1 0 -1 -1 -0 0 1 -0 1 1
-0 2 1 -2 -2 1 -2 0 2 2 1 -0 2 0 -1 2 2 3 2 3 1 1 1 -1 -1 1 2 3 2 1 2 2 1 0 -0 -1 -1 -1 0 -0 1 -0 -0
-1 0 -1 2 -1 -6 -1 -1 2 0 2 2 1 3 1 0 -0 2 0 1 0 0 0 2 0 1 1 2 2 3 1 1 1 2 1 1 1 -1 -1 -1 0 -0 -0
-4 -0 -1 -1 -3 -0 1 0 2 5 -0 0 1 2 2 1 2 1 1 3 1 0 1 0 0 -1 -0 -0 -1 -1 1 2 1 1 1 2 1 1 0 0 0 1 -0
-3 -1 -2 -2 -1 2 1 14 1 0 1 3 -2 0 -1 1 3 3 3 0 4 2 3 2 3 4 1 -0 2 -0 -1 -0 1 0 0 0 2 2 2 2 2 1 1
2 -0 1 -2 1 -0 -2 -1 1 -0 1 -4 -2 -1 -1 -3 -1 1 2 1 2 4 2 2 1 2 0 1 1 2 1 0 -0 0 2 1 2 2 -0 0 2 1 1
-1 4 -4 -7 -3 -1 -2 1 -1 -3 1 0 1 4 7 0 2 0 1 -1 1 2 -2 1 -0 -0 -4 -0 -0 -0 0 -3 1 2 -1 -1 -0 1 0 -0 0 -0 -0
-0 -1 5 1 -2 -1 1 1 2 -0 -3 0 1 -0 -1 -0 -0 2 2 2 3 -5 18 -4 -4 -3 -2 -2 1 1 2 2 -2 -0 0 1 0 -1 1 1 -0 -1 -3
-1 2 4 2 2 4 0 1 2 1 2 -5 -0 2 4 0 0 1 3 2 1 5 10 -0 -6 4 0 -3 2 -6 1 3 1 -1 -1 -1 2 -0 2 1 1 5 3
-4 -1 2 3 3 5 3 -3 2 2 1 0 -3 -4 3 2 -1 -1 -1 0 4 1 1 4 7 -8 -3 1 4 9 -3 5 -1 2 -2 3 -1 3 4 3 -3 -1 2
-1 -3 0 2 6 -2 -2 -3 -5 -6 -4 -1 1 -2 -6 10 3 -1 -4 -1 -0 1 6 1 0 -4 -4 -10 -15 -14 4 -7 1 2 1 2 4 8 3 -0 -0 4 -3
-1 -2 -4 -5 0 -0 -5 3 -5 3 -1 5 6 2 4 -7 -14 -15 0 1 3 -2 -0 0 -1 -4 -2 -11 -4 -0 -9 3 -7 2 1 0 6 -2 5 2 -3 2 -4
-0 2 -2 3 1 2 11 1 1 1 -2 2 0 -0 -4 1 5 3 -2 -19 -6 2 4 4 -1 1 0 1 5 -2 -12 -20 17 6 3 1 2 -0 3 3 -3 1 -1
1 -5 -4 -2 1 8 9 5 4 6 2 6 6 7 2 1 -1 -1 -1 -6 -2 -2 -5 -2 3 4 -2 -1 3 3 -10 -1 0 1 12 8 -11 -8 15 -2 3 -3 3
0 -2 0 -1 2 3 7 6 5 2 6 6 -1 -2 -1 1 -0 -1 1 -0 -3 -1 3 -1 -3 -0 3 2 -1 10 3 -3 2 -8 -1 4 21 -6 -4 10 -9 2 -4
1 -2 -3 -3 -1 3 5 6 6 3 3 -1 5 3 -1 -1 1 -0 0 0 2 -4 -5 4 4 4 3 1 -2 6 2 -8 1 5 2 -1 -0 -6 -0 -7 -5 -8 2
Height
3161 3163 3165 3165 3167 3168 3169 3169 3169 3169 3169 3170 3171 3172 3173 3173 3174 3175 3175 3176 3178 3178 3178 3179 3178 3178 3178 3178 3178 3178 3178 3179 3179 3180 3181 3181 3181 3181 3181 3181 3182 3182 3182
3158 3160 3163 3164 3166 3167 3168 3168 3169 3169 3169 3169 3171 3171 3172 3173 3173 3174 3175 3176 3178 3178 3178 3178 3178 3178 3178 3179 3179 3179 3179 3180 3180 3181 3182 3182 3182 3182 3182 3182 3182 3182 3182
3155 3158 3160 3162 3164 3166 3167 3167 3168 3169 3169 3169 3170 3171 3172 3172 3173 3174 3175 3176 3178 3178 3178 3178 3178 3178 3179 3179 3179 3180 3179 3180 3181 3182 3183 3183 3183 3183 3183 3183 3183 3184 3183
3153 3155 3157 3160 3163 3164 3165 3166 3167 3168 3168 3169 3169 3169 3171 3172 3173 3174 3175 3176 3177 3178 3179 3178 3178 3178 3179 3179 3180 3180 3181 3181 3182 3182 3184 3184 3184 3184 3184 3184 3184 3184 3184
3151 3153 3155 3158 3160 3162 3164 3165 3166 3166 3167 3168 3169 3169 3170 3171 3172 3174 3175 3177 3177 3179 3179 3179 3178 3178 3179 3179 3180 3181 3182 3182 3183 3183 3184 3185 3185 3185 3185 3185 3185 3185 3184
3150 3151 3153 3155 3157 3160 3162 3163 3164 3165 3166 3167 3168 3169 3170 3171 3172 3173 3175 3177 3178 3179 3179 3179 3179 3179 3179 3180 3180 3181 3183 3184 3184 3185 3185 3185 3186 3186 3186 3186 3185 3185 3185
3148 3149 3151 3154 3156 3158 3160 3161 3162 3164 3165 3166 3167 3168 3170 3171 3171 3172 3174 3176 3178 3179 3179 3179 3179 3179 3179 3180 3181 3182 3183 3184 3184 3185 3185 3186 3186 3186 3186 3186 3186 3185 3185
3143 3145 3148 3151 3153 3155 3156 3159 3160 3162 3163 3164 3166 3167 3169 3170 3171 3172 3174 3175 3177 3178 3179 3179 3179 3179 3179 3180 3181 3182 3183 3183 3184 3184 3185 3185 3185 3186 3186 3186 3185 3185 3184
3141 3142 3144 3146 3148 3151 3154 3155 3157 3160 3162 3162 3164 3166 3168 3169 3169 3171 3172 3174 3175 3176 3178 3178 3179 3179 3179 3180 3181 3182 3183 3183 3184 3184 3184 3184 3185 3185 3185 3184 3184 3183 3183
3137 3138 3140 3142 3144 3147 3150 3152 3155 3157 3159 3160 3162 3163 3165 3167 3168 3169 3171 3173 3175 3175 3176 3177 3178 3179 3179 3180 3181 3182 3182 3183 3184 3183 3183 3184 3183 3183 3183 3183 3183 3182 3182
3132 3134 3136 3138 3140 3143 3145 3148 3150 3153 3155 3158 3159 3161 3162 3164 3166 3168 3170 3170 3172 3174 3174 3175 3175 3177 3178 3180 3180 3181 3182 3182 3182 3182 3182 3182 3182 3182 3182 3182 3182 3182 3181
3127 3129 3130 3133 3135 3137 3140 3143 3146 3148 3150 3153 3155 3158 3159 3161 3163 3165 3167 3168 3170 3171 3173 3174 3174 3175 3176 3178 3179 3180 3180 3181 3181 3181 3181 3181 3180 3180 3180 3181 3181 3180 3180
3120 3124 3125 3127 3130 3133 3135 3137 3140 3143 3146 3148 3150 3152 3155 3158 3160 3161 3163 3165 3167 3168 3170 3171 3173 3174 3175 3176 3177 3178 3179 3179 3179 3179 3179 3179 3179 3178 3179 3179 3179 3179 3179
3112 3117 3120 3123 3125 3127 3128 3131 3134 3137 3140 3143 3146 3148 3150 3153 3155 3157 3159 3162 3164 3166 3168 3169 3171 3172 3173 3175 3175 3176 3177 3177 3177 3178 3177 3177 3177 3177 3177 3177 3177 3177 3177
3104 3109 3113 3117 3120 3122 3123 3124 3129 3131 3134 3137 3140 3142 3145 3148 3150 3152 3154 3158 3160 3162 3164 3165 3167 3169 3171 3172 3173 3174 3175 3175 3175 3175 3175 3175 3175 3175 3175 3175 3175 3174 3174
3095 3100 3104 3108 3112 3115 3118 3121 3124 3126 3129 3131 3134 3137 3140 3143 3146 3148 3150 3154 3156 3158 3159 3161 3163 3164 3167 3169 3170 3171 3172 3173 3174 3173 3173 3173 3172 3172 3172 3172 3172 3171 3171
3084 3089 3093 3098 3102 3107 3111 3114 3118 3120 3122 3125 3128 3130 3133 3136 3140 3143 3145 3148 3152 3154 3156 3156 3158 3161 3163 3165 3167 3168 3169 3170 3170 3171 3171 3170 3170 3170 3169 3169 3169 3169 3169
3073 3077 3082 3087 3093 3097 3102 3106 3111 3114 3116 3119 3122 3125 3128 3132 3134 3136 3140 3143 3146 3148 3149 3152 3154 3156 3160 3162 3163 3164 3165 3166 3166 3166 3166 3167 3166 3166 3166 3166 3166 3167 3166
3059 3064 3068 3073 3080 3087 3091 3097 3101 3106 3110 3113 3116 3118 3121 3126 3129 3131 3134 3138 3140 3142 3144 3146 3144 3149 3153 3156 3157 3159 3159 3161 3162 3162 3163 3162 3162 3162 3162 3162 3163 3163 3163
3046 3050 3055 3060 3065 3074 3080 3085 3091 3096 3101 3106 3110 3113 3116 3120 3123 3126 3129 3132 3134 3136 3138 3140 3141 3144 3144 3149 3151 3153 3154 3156 3157 3157 3158 3158 3159 3159 3158 3158 3158 3158 3158
3037 3040 3044 3048 3053 3060 3068 3075 3081 3087 3095 3099 3104 3106 3111 3112 3117 3120 3124 3126 3129 3131 3133 3134 3136 3137 3140 3143 3140 3146 3149 3147 3150 3152 3153 3152 3154 3154 3153 3153 3152 3152 3151
3029 3031 3034 3038 3042 3049 3057 3066 3072 3081 3087 3092 3096 3099 3103 3109 3110 3114 3116 3119 3122 3124 3126 3127 3130 3131 3133 3135 3134 3137 3138 3140 3143 3147 3146 3147 3147 3147 3147 3146 3147 3146 3145
3018 3020 3020 3024 3030 3038 3045 3055 3062 3069 3076 3081 3086 3093 3098 3101 3104 3107 3109 3113 3115 3116 3118 3120 3121 3123 3125 3125 3126 3126 3129 3131 3138 3140 3140 3140 3141 3142 3142 3141 3141 3140 3139
3009 3010 3011 3012 3017 3025 3034 3042 3050 3058 3066 3074 3081 3087 3090 3094 3097 3100 3102 3105 3106 3108 3109 3112 3113 3113 3114 3116 3117 3116 3118 3123 3128 3131 3132 3133 3132 3134 3133 3134 3133 3133 3131
3000 3003 3005 3007 3011 3016 3024 3033 3042 3050 3059 3067 3072 3077 3081 3085 3088 3091 3093 3096 3097 3100 3100 3101 3101 3103 3104 3107 3109 3110 3110 3115 3118 3121 3123 3124 3125 3124 3126 3125 3124 3124 3125
2994 2996 3000 3002 3006 3010 3017 3027 3035 3044 3051 3058 3063 3068 3073 3077 3080 3082 3084 3086 3087 3087 3088 3088 3090 3092 3094 3096 3098 3101 3102 3103 3109 3110 3111 3113 3113 3115 3116 3115 3116 3116 3116